logo
Search for airport 
image banner adimage banner adimage banner ad
image banner ad

OLZ190 - Wujah Al Hajar Airbase

Located in Batroun, Lebanon

ICAO - , IATA -

Data provided by Airmate  

General information

Coordinates: N34°16'52" E35°40'48"
Elevation is 630 feet MSL.
Magnetic variation is 5° East
View others Airports in North Governorate

Operational data

Special qualification required
Current time UTC:
Current local time:
METAR: OLBA 171900Z 32004KT 8000 FEW026 26/20 Q1011 NOSIG
View NOTAMs / SUP AIP / TFR affecting this airport [VIEW]
Communications frequencies: [VIEW]

Runways:

RWY identifierQFULength (ft)Width (ft)SurfaceLDA (ft)
0227°505097CONC
20207°505097CONC

Airport contact information

Address: Batroun Lebanon

Satellite view of OLZ190